Nice, France

9:39 PM CET on February 10, 2016 (GMT +0100)
Nice-Cote d'Azur

Weather History for LFMN - September, 2013

Change the Weather History Date:

Monday, September 16, 2013

  Actual Average Record
Temperature  
Mean Temperature 66 °F -  
Max Temperature 73 °F 71 °F 78 °F (1999)
Min Temperature 59 °F 58 °F 55 °F (1998)
Cooling Degree Days 1    
Growing Degree Days 16 (Base 50)    
Moisture  
Dew Point 55 °F    
Average Humidity 63    
Maximum Humidity 77    
Minimum Humidity 50    
Precipitation  
Precipitation 0.00 in 0.11 in - ()
Sea Level Pressure  
Sea Level Pressure 29.72 in    
Wind  
Wind Speed 8 mph ()    
Max Wind Speed 23 mph    
Max Gust Speed -    
Visibility 6.2 miles    
Events      
Averages and records for this station are not official NWS values.
T = Trace of Precipitation, MM = Missing Value Source: Averaged Metar Reports

Daily Weather History Graph

Daily Weather History Graph

Search for Another Location

Airport or City:

Trip Planner

Search our weather history database for the weather conditions in past years. The results will help you decide how hot, cold, wet, or windy it might be!

Date:

Astronomy

Sep. 16, 2013 Rise Set
Actual Time 7:11 AM CEST 7:39 PM CEST
Civil Twilight 6:42 AM CEST 8:08 PM CEST
Nautical Twilight 6:08 AM CEST 8:42 PM CEST
Astronomical Twilight 5:33 AM CEST 9:17 PM CEST
Moon 5:41 PM CEST (9/16) 3:34 AM CEST (9/16)
Length of Visible Light 13h 25m
Length of Day
12h 27m
Waxing Gibbous, 88% of the Moon is Illuminated
Sep 16
Waxing Gibbous
Sep 19
Full
Sep 27
Last Quarter
Oct 5
New
Oct 12
First Quarter

Hourly Weather History & Observations

Time (CEST) Temp. Dew Point Humidity Pressure Visibility Wind Dir Wind Speed Gust Speed Precip Events Conditions
12:00 AM 64.4 °F 57.2 °F 77% 29.80 in - NNW 8.1 mph - N/A   Clear
12:30 AM 64.4 °F 55.4 °F 73% 29.80 in - NNW 6.9 mph - N/A   Clear
1:00 AM 64.4 °F 55.4 °F 73% 29.80 in - NNW 8.1 mph - N/A   Clear
1:30 AM 62.6 °F 53.6 °F 72% 29.80 in - NW 8.1 mph - N/A   Clear
2:00 AM 62 °F 53 °F 65% 29.80 in 31 mi NNW 6.9 mph - -  
2:00 AM 62.6 °F 53.6 °F 72% 29.80 in - NNW 8.1 mph - N/A   Clear
2:30 AM 62.6 °F 53.6 °F 72% 29.80 in - NW 9.2 mph - N/A   Clear
3:00 AM 62.6 °F 53.6 °F 72% 29.77 in - NNW 8.1 mph - N/A   Clear
3:30 AM 62.6 °F 51.8 °F 68% 29.80 in - NNW 13.8 mph - N/A   Clear
4:00 AM 60.8 °F 51.8 °F 72% 29.77 in - NNW 12.7 mph - N/A   Clear
4:30 AM 60.8 °F 51.8 °F 72% 29.77 in - NW 13.8 mph - N/A   Clear
5:00 AM 60.8 °F 51.8 °F 72% 29.77 in - North 8.1 mph - N/A   Clear
5:30 AM 60.8 °F 51.8 °F 72% 29.77 in - NNW 10.4 mph - N/A   Clear
6:00 AM 60.8 °F 51.8 °F 72% 29.77 in - North 9.2 mph - N/A   Clear
6:30 AM 60.8 °F 50.0 °F 68% 29.77 in 6.2 mi NNW 10.4 mph - N/A   Partly Cloudy
7:00 AM 60.8 °F 50.0 °F 68% 29.77 in 6.2 mi NNW 11.5 mph - N/A   Partly Cloudy
7:24 AM 60.8 °F 50.0 °F 68% 29.77 in 6.2 mi NNW 9.2 mph - N/A   Partly Cloudy
8:00 AM 60 °F 50 °F 61% 29.79 in 31 mi NNW 11.5 mph - -   Scattered Clouds
8:00 AM 60.8 °F 50.0 °F 68% 29.77 in 6.2 mi NNW 11.5 mph - N/A   Scattered Clouds
8:30 AM 62.6 °F 50.0 °F 63% 29.77 in 6.2 mi NNW 15.0 mph - N/A   Partly Cloudy
9:00 AM 64.4 °F 50.0 °F 59% 29.77 in 6.2 mi NNW 12.7 mph - N/A   Partly Cloudy
9:30 AM 66.2 °F 50.0 °F 56% 29.77 in 6.2 mi NNW 11.5 mph - N/A   Scattered Clouds
10:04 AM 69.8 °F 51.8 °F 53% 29.77 in 6.2 mi NNW 9.2 mph - N/A   Scattered Clouds
10:30 AM 69.8 °F 51.8 °F 53% 29.77 in 6.2 mi NNW 9.2 mph - N/A   Scattered Clouds
11:00 AM 71.6 °F 51.8 °F 50% 29.77 in 6.2 mi NNW 5.8 mph - N/A   Scattered Clouds
11:30 AM 73.4 °F 57.2 °F 57% 29.77 in 6.2 mi SE 3.5 mph - N/A   Scattered Clouds
12:00 PM 71.6 °F 57.2 °F 60% 29.77 in 6.2 mi South 5.8 mph - N/A   Scattered Clouds
12:30 PM 73.4 °F 59.0 °F 61% 29.74 in 6.2 mi South 5.8 mph - N/A   Scattered Clouds
1:00 PM 71.6 °F 57.2 °F 60% 29.74 in 6.2 mi South 8.1 mph - N/A   Scattered Clouds
1:24 PM 71.6 °F 57.2 °F 60% 29.74 in 6.2 mi South 6.9 mph - N/A   Mostly Cloudy
2:00 PM 71 °F 59 °F 57% 29.74 in 31 mi South 10.4 mph - -   Scattered Clouds
2:00 PM 71.6 °F 59.0 °F 64% 29.74 in 6.2 mi South 10.4 mph - N/A   Mostly Cloudy
2:30 PM 71.6 °F 59.0 °F 64% 29.74 in 6.2 mi SSW 12.7 mph - N/A   Mostly Cloudy
3:00 PM 71.6 °F 57.2 °F 60% 29.74 in 6.2 mi SSW 11.5 mph - N/A   Mostly Cloudy
3:30 PM 69.8 °F 55.4 °F 60% 29.71 in 6.2 mi SSW 6.9 mph - N/A   Mostly Cloudy
4:00 PM 71.6 °F 55.4 °F 57% 29.68 in 6.2 mi SSW 8.1 mph - N/A   Mostly Cloudy
4:35 PM 71.6 °F 57.2 °F 60% 29.68 in 6.2 mi SSW 4.6 mph - N/A   Mostly Cloudy
5:09 PM 71.6 °F 57.2 °F 60% 29.65 in 6.2 mi Variable 2.3 mph - N/A   Mostly Cloudy
5:30 PM 71.6 °F 59.0 °F 64% 29.65 in 6.2 mi NE 6.9 mph - N/A   Mostly Cloudy
6:00 PM 71.6 °F 57.2 °F 60% 29.65 in 6.2 mi NE 9.2 mph - N/A   Mostly Cloudy
6:30 PM 71.6 °F 55.4 °F 57% 29.65 in 6.2 mi NE 6.9 mph - N/A   Scattered Clouds
7:00 PM 71.6 °F 55.4 °F 57% 29.62 in 6.2 mi ENE 4.6 mph - N/A   Scattered Clouds
7:30 PM 71.6 °F 55.4 °F 57% 29.62 in 6.2 mi East 4.6 mph - N/A   Scattered Clouds
8:00 PM 70 °F 58 °F 56% 29.64 in 31 mi ESE 3.5 mph - -   Scattered Clouds
8:00 PM 69.8 °F 57.2 °F 64% 29.62 in 6.2 mi ESE 4.6 mph - N/A   Scattered Clouds
8:30 PM 69.8 °F 57.2 °F 64% 29.62 in 6.2 mi East 3.5 mph - N/A   Scattered Clouds
9:00 PM 69.8 °F 59.0 °F 68% 29.62 in - Variable 2.3 mph - N/A   Clear
9:30 PM 68.0 °F 57.2 °F 68% 29.62 in - WNW 3.5 mph - N/A   Clear
10:00 PM 66.2 °F 57.2 °F 73% 29.62 in - NW 5.8 mph - N/A   Clear
10:30 PM 69.8 °F 53.6 °F 56% 29.59 in - WSW 16.1 mph - N/A   Clear
11:00 PM 71.6 °F 51.8 °F 50% 29.59 in - WSW 20.7 mph - N/A   Clear
11:30 PM 69.8 °F 53.6 °F 56% 29.59 in - SW 23.0 mph - N/A   Clear